CST,Max TemperatureF,Mean TemperatureF,Min TemperatureF,Max Dew PointF,MeanDew PointF,Min DewpointF,Max Humidity, Mean Humidity, Min Humidity, Max Sea Level PressureIn, Mean Sea Level PressureIn, Min Sea Level PressureIn, Max VisibilityMiles, Mean VisibilityMiles, Min VisibilityMiles, Max Wind SpeedMPH, Mean Wind SpeedMPH, Max Gust SpeedMPH,PrecipitationIn, CloudCover, Events, WindDirDegrees
2013-2-1,23,7,-9,23,8,-17,100,86,71,30.16,29.98,29.88,10,10,4,18,8,22,0.00,8,Snow,264
2013-2-2,35,20,5,32,14,3,100,90,79,30.13,30.04,29.90,10,8,0,37,12,45,0.09,6,Rain-Snow,313
2013-2-3,23,16,10,19,15,9,100,93,80,30.09,29.93,29.82,10,10,10,14,7,,0.00,6,Snow,98
2013-2-4,35,22,8,32,23,9,100,95,81,29.96,29.76,29.60,10,8,1,20,9,24,0.00,6,Rain-Snow,220
2013-2-5,32,28,23,30,25,19,100,88,69,29.96,29.86,29.65,10,10,4,20,13,26,0.00,6,Rain,318
2013-2-6,39,29,19,32,25,19,100,94,75,30.05,29.83,29.71,10,8,1,18,10,16,0.00,4,,88
2013-2-7,24,20,15,25,21,16,100,100,100,30.17,30.12,30.06,8,4,1,15,9,,0.00,8,Snow,113
2013-2-8,26,22,19,27,23,19,100,100,100,30.13,29.99,29.90,10,6,1,20,13,28,0.00,8,,167
2013-2-9,26,24,21,27,24,21,100,100,100,29.90,29.85,29.80,7,3,0,8,5,,0.00,7,Fog,4
2013-2-10,26,22,17,27,22,18,100,100,93,29.94,29.78,29.71,10,6,0,32,14,40,0.00,8,Fog-Rain,345
2013-2-11,24,22,19,19,19,18,100,93,80,30.03,29.95,29.82,10,9,4,24,16,32,0.01,7,Rain-Snow-Thunderstorm,285
2013-2-12,35,26,19,27,20,18,93,82,70,29.89,29.84,29.79,10,10,10,18,13,21,0.00,0,,290
2013-2-13,,,,,,,,,,,,,,,,,,,,,,
2013-2-14,23,21,19,21,19,16,100,88,80,30.25,30.24,30.23,10,10,10,14,8,16,0.00,8,Rain-Snow,294
2013-2-15,21,18,15,19,15,12,100,88,74,30.35,30.26,30.08,10,10,5,16,10,20,0.01,4,Snow,305
2013-2-16,35,27,19,30,26,16,100,92,75,30.07,29.90,29.77,10,10,3,13,8,,0.02,4,Rain-Snow,186
2013-2-17,41,34,28,36,32,28,100,92,70,29.76,29.56,29.46,10,10,3,26,13,34,0.04,4,Rain-Snow,244
2013-2-18,30,15,0,30,9,-4,100,85,73,30.24,29.97,29.60,10,8,2,32,24,38,0.76,5,Rain-Snow,338
2013-2-19,5,-3,-11,-2,-9,-17,85,75,65,30.38,30.32,30.24,10,10,10,15,10,18,0.00,0,,37
2013-2-20,14,4,-7,10,-1,-11,100,79,62,30.31,30.17,30.07,10,9,2,25,15,31,0.20,5,Snow,130
2013-2-21,21,16,12,16,13,9,100,87,68,30.15,30.11,30.07,10,8,2,16,10,20,0.19,7,Snow,132
2013-2-22,26,18,10,21,14,9,100,87,74,30.06,29.94,29.80,10,10,10,8,6,,0.00,4,,155
2013-2-23,37,22,6,28,19,5,100,93,70,29.81,29.74,29.69,10,8,0,12,7,,0.00,2,Fog-Snow,150
2013-2-24,32,24,17,28,24,16,100,91,75,30.06,29.95,29.81,10,9,2,22,10,29,0.01,5,Snow,292
2013-2-25,42,28,14,28,22,14,100,77,49,30.04,29.94,29.86,10,10,10,17,10,23,0.00,0,,209
2013-2-26,41,30,19,32,25,18,100,82,57,30.09,29.95,29.86,10,10,10,18,9,23,0.00,2,,203
2013-2-27,30,26,23,30,27,21,100,97,86,30.27,30.19,30.09,10,9,4,17,12,24,0.00,8,,348
2013-2-28,28,24,21,25,22,19,100,92,74,30.28,30.26,30.22,10,10,10,12,6,17,0.00,8,,49